Location: Vesunti
(61.5000°N, 22.8333°E)
Time: 16:48:18
(UTC+00:00)

Meteor 1-20 Rocket - Pass Details

Date: 17 February 2020
Orbit: 820 x 891 km, 81.2° (Epoch: 29 March)

Event Time Altitude Azimuth Distance (km) Brightness Sun altitude
Rises 04:58:23 0° 341° (NNW) 3,410 7.1 -8.8°
Reaches altitude 10° 05:00:47 10° 342° (NNW) 2,481 6.4 -8.5°
Maximum altitude 05:06:26 88° 73° (ENE) 867 4.3 -7.9°
Drops below altitude 10° 05:12:10 10° 163° (SSE) 2,514 7.1 -7.2°
Sets 05:14:37 0° 164° (SSE) 3,458 7.8 -6.9°
